TimeEDT,TemperatureF,Dew PointF,Humidity,Sea Level PressureIn,VisibilityMPH,Wind Direction,Wind SpeedMPH,Gust SpeedMPH,PrecipitationIn,Events,Conditions,WindDirDegrees,DateUTC
12:52 AM,53.1,46.9,80,30.16,10.0,South,10.4,17.3,0.01,Rain,Light Rain,180,2013-04-28 04:52:00
1:52 AM,53.1,46.0,77,30.14,10.0,Variable,4.6,18.4,0.00,,Overcast,0,2013-04-28 05:52:00
2:22 AM,53.6,44.6,72,30.17,10.0,South,9.2,19.6,0.00,,Overcast,170,2013-04-28 06:22:00
2:42 AM,53.6,44.6,72,30.16,10.0,South,10.4,24.2,0.00,,Overcast,170,2013-04-28 06:42:00
2:52 AM,53.1,45.0,74,30.10,10.0,South,11.5,24.2,0.00,,Overcast,190,2013-04-28 06:52:00
3:39 AM,51.8,44.6,76,30.14,10.0,SSE,12.7,24.2,0.01,Rain,Light Rain,160,2013-04-28 07:39:00
3:52 AM,52.0,44.1,74,30.09,10.0,South,15.0,24.2,0.01,,Overcast,170,2013-04-28 07:52:00
4:52 AM,52.0,45.0,77,30.10,10.0,SSE,11.5,26.5,0.01,,Overcast,160,2013-04-28 08:52:00
5:52 AM,52.0,44.1,74,30.06,10.0,South,10.4,26.5,0.01,,Overcast,180,2013-04-28 09:52:00
6:52 AM,51.1,44.1,77,30.11,10.0,South,12.7,28.8,0.01,Rain,Light Rain,180,2013-04-28 10:52:00
7:11 AM,51.8,44.6,76,30.14,6.0,South,6.9,21.9,0.00,Rain,Light Rain,180,2013-04-28 11:11:00
7:52 AM,51.1,44.1,77,30.13,10.0,South,12.7,21.9,0.03,,Overcast,170,2013-04-28 11:52:00
8:08 AM,50.0,44.6,82,30.16,6.0,South,9.2,18.4,0.01,Rain,Light Rain,190,2013-04-28 12:08:00
8:21 AM,50.0,44.6,82,30.16,10.0,Variable,6.9,26.5,0.02,Rain,Light Rain,0,2013-04-28 12:21:00
8:52 AM,50.0,43.0,77,30.13,10.0,South,11.5,24.2,0.03,Rain,Light Rain,170,2013-04-28 12:52:00
9:03 AM,50.0,44.6,82,30.18,10.0,WSW,11.5,19.6,0.00,Rain,Light Rain,240,2013-04-28 13:03:00
9:52 AM,50.0,43.0,77,30.13,10.0,South,12.7,27.6,0.02,Rain,Light Rain,180,2013-04-28 13:52:00
10:52 AM,51.1,43.0,74,30.11,10.0,South,17.3,31.1,0.00,,Overcast,170,2013-04-28 14:52:00
11:52 AM,52.0,45.0,77,30.07,10.0,South,20.7,40.3,0.01,Rain,Light Rain,170,2013-04-28 15:52:00
12:52 PM,54.0,45.0,72,30.11,10.0,South,9.2,-,0.00,Rain,Light Rain,190,2013-04-28 16:52:00
1:52 PM,55.0,46.0,72,30.08,10.0,South,9.2,20.7,0.00,,Mostly Cloudy,180,2013-04-28 17:52:00
2:03 PM,55.4,46.4,72,30.11,10.0,South,13.8,21.9,N/A,,Mostly Cloudy,170,2013-04-28 18:03:00
2:52 PM,55.0,46.0,72,30.03,10.0,South,17.3,33.4,N/A,,Mostly Cloudy,170,2013-04-28 18:52:00
3:29 PM,55.4,46.4,72,30.05,10.0,South,18.4,29.9,N/A,,Scattered Clouds,170,2013-04-28 19:29:00
3:52 PM,55.9,46.0,69,30.00,10.0,SSE,17.3,32.2,N/A,,Mostly Cloudy,160,2013-04-28 19:52:00
4:47 PM,57.2,46.4,67,30.04,10.0,South,4.6,-,N/A,,Mostly Cloudy,180,2013-04-28 20:47:00
4:52 PM,57.0,46.0,67,30.00,10.0,Calm,Calm,-,N/A,,Mostly Cloudy,0,2013-04-28 20:52:00
5:52 PM,57.0,45.0,64,29.98,10.0,SSE,10.4,19.6,N/A,,Clear,160,2013-04-28 21:52:00
6:52 PM,55.9,46.0,69,29.98,10.0,SSE,10.4,16.1,N/A,,Partly Cloudy,160,2013-04-28 22:52:00
7:40 PM,55.4,46.4,72,30.03,10.0,SE,8.1,16.1,N/A,,Mostly Cloudy,140,2013-04-28 23:40:00
7:52 PM,55.0,46.0,72,30.00,10.0,SSE,8.1,-,N/A,,Overcast,150,2013-04-28 23:52:00
8:52 PM,54.0,46.0,75,30.01,10.0,SSE,11.5,17.3,N/A,,Overcast,160,2013-04-29 00:52:00
9:52 PM,54.0,46.0,75,30.01,10.0,SSE,10.4,19.6,N/A,,Mostly Cloudy,150,2013-04-29 01:52:00
10:04 PM,53.6,46.4,77,30.04,10.0,SE,9.2,20.7,N/A,,Scattered Clouds,140,2013-04-29 02:04:00
10:36 PM,53.6,46.4,77,30.05,10.0,SSE,10.4,-,N/A,,Mostly Cloudy,160,2013-04-29 02:36:00
10:52 PM,54.0,46.9,77,30.01,10.0,SSE,8.1,-,N/A,,Overcast,150,2013-04-29 02:52:00
11:52 PM,53.1,46.9,80,30.01,10.0,SSE,9.2,20.7,N/A,,Mostly Cloudy,160,2013-04-29 03:52:00